| time (UTC) | temp F | wind direction | speed MPH | gust MPH | rain 1hr in | rain 24hr in | rain mn in | humidity % | barometer mb |
| 20260503034431 | 85 | 239 | 5.0 | 9.0 | 1.13 | 5.97 | 0.00 | 72 | 1011.7 |
| 20260503034202 | 85 | 239 | 7.0 | 9.0 | 1.21 | 6.04 | 0.00 | 72 | 1011.7 |
| 20260503033931 | 85 | 279 | 4.0 | 9.0 | 1.24 | 6.07 | 0.00 | 73 | 1011.8 |
| 20260503033653 | 84 | 246 | 6.0 | 9.0 | 1.27 | 6.13 | 0.00 | 73 | 1011.9 |
| 20260503033431 | 84 | 216 | 6.0 | 9.0 | 1.31 | 6.17 | 0.00 | 73 | 1011.8 |
| 20260503033142 | 84 | 272 | 2.0 | 9.0 | 1.33 | 6.18 | 0.00 | 73 | 1011.9 |
| 20260503032931 | 84 | 207 | 3.0 | 9.0 | 1.38 | 6.23 | 0.00 | 74 | 1011.9 |
| 20260503032632 | 84 | 234 | 5.0 | 10.0 | 1.40 | 6.18 | 0.00 | 74 | 1011.9 |
| 20260503032431 | 84 | 189 | 5.0 | 10.0 | 1.41 | 6.16 | 0.00 | 74 | 1012.0 |
| 20260503032123 | 83 | 230 | 6.0 | 9.0 | 1.42 | 6.16 | 0.00 | 74 | 1012.0 |
| 20260503031932 | 84 | 203 | 5.0 | 9.0 | 1.41 | 6.14 | 0.00 | 74 | 1012.0 |
| 20260503031612 | 83 | 220 | 5.0 | 9.0 | 1.41 | 6.11 | 0.00 | 74 | 1012.0 |
| 20260503031431 | 83 | 244 | 6.0 | 10.0 | 1.39 | 6.09 | 0.00 | 74 | 1011.9 |
| 20260503031102 | 83 | 237 | 5.0 | 10.0 | 1.40 | 6.13 | 0.00 | 74 | 1012.0 |
| 20260503030930 | 83 | 242 | 8.0 | 10.0 | 1.37 | 6.14 | 0.00 | 74 | 1012.0 |
| 20260503030552 | 83 | 296 | 6.0 | 13.0 | 1.35 | 6.17 | 0.00 | 75 | 1011.9 |
| 20260503030431 | 83 | 251 | 7.0 | 13.0 | 1.35 | 6.16 | 0.00 | 74 | 1011.9 |
| 20260503030042 | 83 | 267 | 8.0 | 13.0 | 1.35 | 6.16 | 0.00 | 75 | 1011.9 |
| 20260503025931 | 83 | 261 | 7.0 | 13.0 | 1.31 | 6.13 | 0.00 | 74 | 1011.9 |
| 20260503025532 | 83 | 199 | 6.0 | 12.0 | 1.39 | 6.14 | 0.00 | 74 | 1012.0 |
| 20260503025431 | 83 | 245 | 7.0 | 12.0 | 1.37 | 6.12 | 0.00 | 74 | 1012.0 |
| 20260503025022 | 83 | 248 | 9.0 | 14.0 | 1.32 | 6.18 | 0.00 | 74 | 1012.0 |
| 20260503024931 | 83 | 249 | 7.0 | 14.0 | 1.32 | 6.18 | 0.00 | 74 | 1012.0 |
| 20260503024512 | 83 | 249 | 4.0 | 10.0 | 1.32 | 6.26 | 0.00 | 74 | 1012.0 |
| 20260503024430 | 83 | 227 | 4.0 | 10.0 | 1.32 | 6.26 | 0.00 | 74 | 1012.2 |
| 20260503024002 | 83 | 254 | 6.0 | 10.0 | 1.27 | 6.20 | 0.00 | 73 | 1012.2 |
| 20260503023931 | 84 | 226 | 6.0 | 10.0 | 1.27 | 6.20 | 0.00 | 73 | 1012.2 |
| 20260503023452 | 83 | 264 | 7.0 | 10.0 | 1.27 | 6.18 | 0.00 | 74 | 1012.2 |
| 20260503023430 | 83 | 233 | 6.0 | 10.0 | 1.27 | 6.18 | 0.00 | 74 | 1012.3 |
| 20260503022942 | 83 | 204 | 5.0 | 16.0 | 1.24 | 6.13 | 0.00 | 74 | 1012.3 |
| 20260503022931 | 83 | 221 | 6.0 | 16.0 | 1.24 | 6.13 | 0.00 | 74 | 1012.3 |
| 20260503022432 | 83 | 236 | 12.0 | 16.0 | 1.19 | 6.09 | 0.00 | 74 | 1012.3 |
| 20260503022430 | 83 | 218 | 12.0 | 16.0 | 1.19 | 6.09 | 0.00 | 74 | 1012.3 |
| 20260503021931 | 83 | 216 | 11.0 | 17.0 | 1.16 | 6.06 | 0.00 | 75 | 1012.5 |
| 20260503021922 | 83 | 239 | 11.0 | 17.0 | 1.15 | 6.06 | 0.00 | 75 | 1012.4 |
| 20260503021431 | 82 | 246 | 6.0 | 10.0 | 1.11 | 6.00 | 0.00 | 75 | 1012.5 |
| 20260503021412 | 82 | 215 | 5.0 | 10.0 | 1.12 | 6.01 | 0.00 | 75 | 1012.5 |
| 20260503020930 | 83 | 264 | 6.0 | 10.0 | 1.11 | 6.07 | 0.00 | 76 | 1012.6 |
| 20260503020902 | 83 | 224 | 7.0 | 11.0 | 1.12 | 6.09 | 0.00 | 76 | 1012.6 |
| 20260503020431 | 82 | 232 | 8.0 | 11.0 | 1.09 | 6.10 | 0.00 | 76 | 1012.6 |
| 20260503020352 | 82 | 229 | 5.0 | 10.0 | 1.06 | 6.09 | 0.00 | 77 | 1012.6 |
| 20260503015930 | 82 | 224 | 6.0 | 11.0 | 1.13 | 6.16 | 0.00 | 76 | 1012.6 |
| 20260503015841 | 82 | 197 | 7.0 | 11.0 | 1.15 | 6.14 | 0.00 | 76 | 1012.6 |
| 20260503015431 | 82 | 203 | 5.0 | 11.0 | 1.14 | 6.07 | 0.00 | 76 | 1012.6 |
| 20260503014931 | 82 | 213 | 5.0 | 9.0 | 1.24 | 6.14 | 0.00 | 75 | 1012.6 |
| 20260503014821 | 83 | 151 | 6.0 | 9.0 | 1.26 | 6.16 | 0.00 | 75 | 1012.6 |
| 20260503014430 | 83 | 208 | 5.0 | 7.0 | 1.31 | 6.16 | 0.00 | 75 | 1012.4 |
| 20260503014312 | 83 | 252 | 3.0 | 7.0 | 1.29 | 6.13 | 0.00 | 75 | 1012.4 |
| 20260503013931 | 83 | 253 | 5.0 | 7.0 | 1.27 | 6.11 | 0.00 | 75 | 1012.3 |
| 20260503013801 | 83 | 231 | 3.0 | 6.0 | 1.27 | 6.12 | 0.00 | 76 | 1012.2 |
| 20260503013430 | 82 | 166 | 2.0 | 4.0 | 1.33 | 6.12 | 0.00 | 76 | 1012.1 |
| 20260503013251 | 82 | 222 | 3.0 | 4.0 | 1.34 | 6.12 | 0.00 | 76 | 1012.1 |
| 20260503012930 | 82 | 187 | 1.0 | 6.0 | 1.34 | 6.13 | 0.00 | 76 | 1012.1 |
| 20260503012742 | 82 | 241 | 3.0 | 6.0 | 1.32 | 6.11 | 0.00 | 76 | 1012.1 |
| 20260503012430 | 82 | 19 | 1.0 | 4.0 | 1.33 | 6.11 | 0.00 | 78 | 1012.1 |
| 20260503011930 | 81 | 173 | 2.0 | 4.0 | 1.38 | 6.17 | 0.00 | 79 | 1011.9 |
| 20260503011722 | 81 | 190 | 1.0 | 5.0 | 1.44 | 6.23 | 0.00 | 79 | 1012.0 |
| 20260503011431 | 81 | 213 | 2.0 | 9.0 | 1.53 | 6.26 | 0.00 | 78 | 1012.0 |
| 20260503011211 | 81 | 139 | 6.0 | 9.0 | 1.55 | 6.30 | 0.00 | 77 | 1012.0 |
| 20260503010930 | 82 | 156 | 5.0 | 7.0 | 1.55 | 6.26 | 0.00 | 76 | 1011.9 |
| 20260503010701 | 82 | 238 | 4.0 | 7.0 | 1.59 | 6.30 | 0.00 | 75 | 1011.8 |
| 20260503010430 | 83 | 213 | 3.0 | 7.0 | 1.58 | 6.33 | 0.00 | 76 | 1011.8 |
| 20260503010151 | 82 | 338 | 4.0 | 7.0 | 1.54 | 6.32 | 0.00 | 76 | 1011.8 |
| 20260503005929 | 83 | 238 | 2.0 | 4.0 | 1.51 | 6.33 | 0.00 | 75 | 1011.8 |
| 20260503005641 | 82 | 64 | 1.0 | 4.0 | 1.48 | 6.32 | 0.00 | 78 | 1011.8 |
| 20260503005430 | 82 | 272 | 2.0 | 4.0 | 1.41 | 6.29 | 0.00 | 79 | 1011.7 |
| 20260503005131 | 81 | 224 | 1.0 | 4.0 | 1.38 | 6.26 | 0.00 | 79 | 1011.6 |
| 20260503004929 | 81 | 168 | 1.0 | 5.0 | 1.32 | 6.22 | 0.00 | 80 | 1011.7 |
| 20260503004621 | 80 | 237 | 2.0 | 4.0 | 1.26 | 6.19 | 0.00 | 80 | 1011.6 |
| 20260503004430 | 80 | 213 | 1.0 | 4.0 | 1.24 | 6.20 | 0.00 | 80 | 1011.6 |
| 20260503004111 | 80 | 175 | 2.0 | 5.0 | 1.24 | 6.22 | 0.00 | 80 | 1011.6 |
| 20260503003930 | 80 | 205 | 2.0 | 5.0 | 1.21 | 6.25 | 0.00 | 81 | 1011.6 |
| 20260503003601 | 80 | 204 | 4.0 | 6.0 | 1.14 | 6.22 | 0.00 | 81 | 1011.6 |
| 20260503003430 | 80 | 197 | 4.0 | 6.0 | 1.07 | 6.18 | 0.00 | 81 | 1011.6 |
| 20260503003052 | 80 | 219 | 3.0 | 5.0 | 1.03 | 6.19 | 0.00 | 80 | 1011.5 |
| 20260503002930 | 80 | 245 | 3.0 | 5.0 | 1.02 | 6.19 | 0.00 | 81 | 1011.5 |
| 20260503002541 | 80 | 251 | 1.0 | 3.0 | 0.95 | 6.25 | 0.00 | 81 | 1011.3 |
| 20260503002428 | 80 | 184 | 1.0 | 5.0 | 0.90 | 6.24 | 0.00 | 81 | 1011.3 |
| 20260503002031 | 80 | 237 | 2.0 | 7.0 | 0.85 | 6.20 | 0.00 | 81 | 1011.4 |
| 20260503001930 | 80 | 154 | 3.0 | 7.0 | 0.86 | 6.20 | 0.00 | 80 | 1011.3 |
| 20260503001521 | 80 | 204 | 4.0 | 5.0 | 0.68 | 6.03 | 0.00 | 80 | 1011.3 |
| 20260503001429 | 80 | 185 | 3.0 | 5.0 | 0.67 | 6.05 | 0.00 | 80 | 1011.3 |
| 20260503001010 | 80 | 234 | 2.0 | 4.0 | 0.68 | 6.10 | 0.00 | 80 | 1011.2 |
| 20260503000929 | 80 | 170 | 1.0 | 5.0 | 0.63 | 6.07 | 0.00 | 80 | 1011.3 |
| 20260503000501 | 80 | 178 | 2.0 | 5.0 | 0.66 | 6.17 | 0.00 | 79 | 1011.3 |
| 20260503000430 | 80 | 170 | 2.0 | 4.0 | 0.67 | 6.19 | 0.00 | 79 | 1011.3 |
| 20260502235951 | 80 | 196 | 2.0 | 7.0 | 0.66 | 6.20 | 0.00 | 79 | 1011.3 |
| 20260502235930 | 80 | 231 | 2.0 | 7.0 | 0.64 | 6.22 | 0.00 | 79 | 1011.3 |
| 20260502235440 | 81 | 223 | 3.0 | 6.0 | 0.69 | 6.26 | 0.00 | 79 | 1011.1 |
| 20260502235429 | 81 | 265 | 3.0 | 6.0 | 0.70 | 6.26 | 0.00 | 79 | 1011.1 |
| 20260502234932 | 81 | 213 | 2.0 | 5.0 | 0.75 | 6.33 | 0.00 | 79 | 1011.3 |
| 20260502234930 | 81 | 222 | 2.0 | 5.0 | 0.75 | 6.33 | 0.00 | 79 | 1011.3 |
| 20260502234429 | 80 | 328 | 1.0 | 4.0 | 0.75 | 6.40 | 0.00 | 80 | 1011.4 |
| 20260502234420 | 80 | 316 | 1.0 | 4.0 | 0.75 | 6.40 | 0.00 | 80 | 1011.4 |
| 20260502233929 | 80 | 228 | 1.0 | 5.0 | 0.77 | 6.48 | 0.00 | 81 | 1011.4 |
| 20260502233911 | 80 | 248 | 1.0 | 5.0 | 0.77 | 6.48 | 0.00 | 81 | 1011.3 |
| 20260502233429 | 80 | 185 | 2.0 | 5.0 | 0.80 | 6.49 | 0.00 | 80 | 1011.4 |
| 20260502233401 | 80 | 167 | 2.0 | 5.0 | 0.80 | 6.49 | 0.00 | 80 | 1011.4 |
| 20260502232929 | 80 | 265 | 1.0 | 6.0 | 0.83 | 6.52 | 0.00 | 81 | 1011.3 |
| 20260502232850 | 80 | 350 | 1.0 | 6.0 | 0.83 | 6.52 | 0.00 | 81 | 1011.3 |
| 20260502232429 | 79 | 1 | 2.0 | 6.0 | 0.87 | 6.58 | 0.00 | 83 | 1011.1 |
| 20260502232341 | 79 | 39 | 3.0 | 6.0 | 0.87 | 6.58 | 0.00 | 83 | 1011.1 |
| 20260502231929 | 79 | 307 | 0.0 | 3.0 | 0.86 | 6.57 | 0.00 | 84 | 1011.1 |
| 20260502231831 | 78 | 259 | 0.0 | 3.0 | 0.85 | 6.58 | 0.00 | 84 | 1011.2 |
| 20260502231429 | 78 | 258 | 1.0 | 4.0 | 0.86 | 6.55 | 0.00 | 84 | 1011.2 |
| 20260502231320 | 78 | 211 | 1.0 | 4.0 | 0.82 | 6.52 | 0.00 | 85 | 1011.1 |
| 20260502230929 | 78 | 358 | 1.0 | 4.0 | 0.80 | 6.50 | 0.00 | 86 | 1011.2 |
| 20260502230810 | 78 | 360 | 1.0 | 4.0 | 0.76 | 6.46 | 0.00 | 86 | 1011.2 |
| 20260502230429 | 77 | 7 | 1.0 | 2.0 | 0.73 | 6.48 | 0.00 | 86 | 1011.2 |
| 20260502230300 | 77 | 19 | 0.0 | 3.0 | 0.73 | 6.45 | 0.00 | 86 | 1011.1 |
| 20260502225929 | 77 | 5 | 2.0 | 3.0 | 0.73 | 6.50 | 0.00 | 86 | 1011.2 |
| 20260502225751 | 77 | 45 | 2.0 | 3.0 | 0.73 | 6.49 | 0.00 | 86 | 1011.2 |
| 20260502225429 | 77 | 50 | 1.0 | 2.0 | 0.64 | 6.42 | 0.00 | 87 | 1011.3 |
| 20260502225240 | 77 | 45 | 0.0 | 1.0 | 0.66 | 6.43 | 0.00 | 87 | 1011.2 |
| 20260502224929 | 76 | 31 | 0.0 | 1.0 | 0.56 | 6.36 | 0.00 | 87 | 1011.2 |
| 20260502224731 | 76 | 24 | 1.0 | 1.0 | 0.54 | 6.33 | 0.00 | 87 | 1011.2 |
| 20260502224429 | 76 | 41 | 0.0 | 2.0 | 0.54 | 6.31 | 0.00 | 87 | 1011.3 |
| 20260502224220 | 76 | 28 | 0.0 | 2.0 | 0.53 | 6.30 | 0.00 | 87 | 1011.3 |
| 20260502223929 | 76 | 9 | 0.0 | 1.0 | 0.51 | 6.27 | 0.00 | 87 | 1011.2 |
| 20260502223710 | 76 | 182 | 1.0 | 2.0 | 0.53 | 6.25 | 0.00 | 88 | 1011.2 |
| 20260502223429 | 76 | 174 | 1.0 | 2.0 | 0.48 | 6.20 | 0.00 | 88 | 1011.1 |
| 20260502223159 | 76 | 191 | 1.0 | 3.0 | 0.48 | 6.19 | 0.00 | 88 | 1011.2 |
| 20260502222650 | 76 | 252 | 1.0 | 3.0 | 0.49 | 6.16 | 0.00 | 88 | 1011.0 |
| 20260502222428 | 76 | 235 | 1.0 | 3.0 | 0.48 | 6.13 | 0.00 | 88 | 1010.9 |
| 20260502221929 | 76 | 243 | 0.0 | 1.0 | 0.46 | 6.09 | 0.00 | 88 | 1010.8 |
| 20260502221630 | 76 | 60 | 0.0 | 1.0 | 0.44 | 6.05 | 0.00 | 88 | 1010.9 |
| 20260502221429 | 76 | 18 | 0.0 | 1.0 | 0.46 | 6.04 | 0.00 | 88 | 1010.9 |
| 20260502221119 | 76 | 32 | 0.0 | 1.0 | 0.43 | 5.99 | 0.00 | 88 | 1011.0 |
| 20260502220928 | 76 | 59 | 0.0 | 1.0 | 0.43 | 5.99 | 0.00 | 88 | 1011.0 |
| 20260502220610 | 76 | 4 | 0.0 | 2.0 | 0.46 | 5.99 | 0.00 | 88 | 1010.9 |
| 20260502220429 | 75 | 13 | 0.0 | 2.0 | 0.47 | 5.99 | 0.00 | 88 | 1010.9 |
| 20260502220100 | 75 | 31 | 0.0 | 1.0 | 0.44 | 5.96 | 0.00 | 88 | 1011.1 |
| 20260502215929 | 75 | 26 | 0.0 | 1.0 | 0.46 | 5.96 | 0.00 | 88 | 1011.1 |
| 20260502215549 | 75 | 40 | 0.0 | 1.0 | 0.48 | 5.96 | 0.00 | 88 | 1011.1 |
| 20260502215428 | 75 | 40 | 0.0 | 1.0 | 0.48 | 5.96 | 0.00 | 88 | 1011.1 |
| 20260502215040 | 75 | 27 | 0.0 | 1.0 | 0.49 | 5.94 | 0.00 | 88 | 1011.1 |
| 20260502214928 | 75 | 33 | 0.0 | 1.0 | 0.49 | 5.94 | 0.00 | 88 | 1011.1 |
| 20260502214530 | 75 | 25 | 0.0 | 0.0 | 0.51 | 5.94 | 0.00 | 88 | 1011.0 |
| 20260502214429 | 75 | 38 | 0.0 | 0.0 | 0.51 | 5.93 | 0.00 | 88 | 1011.0 |
| 20260502214020 | 75 | 255 | 0.0 | 0.0 | 0.54 | 5.90 | 0.00 | 88 | 1011.0 |
| 20260502213928 | 75 | 254 | 0.0 | 1.0 | 0.53 | 5.88 | 0.00 | 88 | 1011.0 |
| 20260502213509 | 75 | 62 | 0.0 | 1.0 | 0.59 | 5.85 | 0.00 | 88 | 1010.9 |
| 20260502213428 | 75 | 72 | 0.0 | 1.0 | 0.57 | 5.84 | 0.00 | 88 | 1010.9 |
| 20260502213000 | 75 | 40 | 0.0 | 1.0 | 0.59 | 5.83 | 0.00 | 88 | 1010.9 |
| 20260502212928 | 75 | 52 | 0.0 | 0.0 | 0.59 | 5.81 | 0.00 | 88 | 1010.9 |
| 20260502212449 | 75 | 225 | 0.0 | 0.0 | 0.56 | 5.77 | 0.00 | 88 | 1010.9 |
| 20260502212428 | 75 | 225 | 0.0 | 0.0 | 0.59 | 5.77 | 0.00 | 88 | 1010.9 |
| 20260502211939 | 75 | 14 | 0.0 | 1.0 | 0.62 | 5.77 | 0.00 | 88 | 1010.9 |
| 20260502211928 | 75 | 15 | 0.0 | 1.0 | 0.62 | 5.77 | 0.00 | 88 | 1010.8 |
| 20260502211431 | 75 | 30 | 0.0 | 2.0 | 0.70 | 5.72 | 0.00 | 88 | 1010.8 |
| 20260502211428 | 75 | 31 | 0.0 | 2.0 | 0.70 | 5.72 | 0.00 | 88 | 1010.8 |
| 20260502210929 | 75 | 34 | 0.0 | 1.0 | 0.75 | 5.68 | 0.00 | 88 | 1010.7 |
| 20260502210428 | 75 | 50 | 0.0 | 1.0 | 0.77 | 5.64 | 0.00 | 88 | 1010.7 |
| 20260502210409 | 75 | 49 | 0.0 | 1.0 | 0.77 | 5.64 | 0.00 | 88 | 1010.7 |
| 20260502205928 | 75 | 317 | 0.0 | 0.0 | 0.85 | 5.61 | 0.00 | 88 | 1010.8 |
| 20260502205859 | 75 | 316 | 0.0 | 0.0 | 0.85 | 5.61 | 0.00 | 88 | 1010.8 |
| 20260502205428 | 75 | 278 | 0.0 | 0.0 | 0.86 | 5.58 | 0.00 | 88 | 1010.8 |
| 20260502205350 | 75 | 282 | 0.0 | 0.0 | 0.86 | 5.58 | 0.00 | 88 | 1010.8 |
| 20260502204928 | 75 | 19 | 0.0 | 0.0 | 0.88 | 5.55 | 0.00 | 88 | 1010.6 |
| 20260502204840 | 75 | 23 | 0.0 | 0.0 | 0.88 | 5.53 | 0.00 | 88 | 1010.6 |
| 20260502204428 | 75 | 326 | 0.0 | 0.0 | 0.93 | 5.51 | 0.00 | 88 | 1010.6 |
| 20260502204329 | 75 | 302 | 0.0 | 0.0 | 0.92 | 5.49 | 0.00 | 88 | 1010.6 |
| 20260502203928 | 75 | 326 | 0.0 | 1.0 | 0.93 | 5.47 | 0.00 | 88 | 1010.5 |
| 20260502203820 | 75 | 323 | 0.0 | 1.0 | 0.93 | 5.45 | 0.00 | 88 | 1010.5 |
| 20260502203427 | 75 | 345 | 0.0 | 0.0 | 0.98 | 5.38 | 0.00 | 88 | 1010.5 |
| 20260502202928 | 75 | 37 | 0.0 | 1.0 | 0.95 | 5.34 | 0.00 | 88 | 1010.3 |
| 20260502202759 | 75 | 24 | 0.0 | 1.0 | 0.98 | 5.34 | 0.00 | 88 | 1010.3 |
| 20260502202428 | 75 | 0 | 0.0 | 0.0 | 0.95 | 5.28 | 0.00 | 88 | 1010.3 |
| 20260502202249 | 75 | 4 | 0.0 | 0.0 | 0.95 | 5.27 | 0.00 | 88 | 1010.2 |
| 20260502201927 | 75 | 34 | 0.0 | 2.0 | 0.96 | 5.22 | 0.00 | 88 | 1010.3 |
| 20260502201739 | 75 | 38 | 0.0 | 2.0 | 0.92 | 5.14 | 0.00 | 88 | 1010.2 |
| 20260502201428 | 75 | 26 | 0.0 | 1.0 | 0.88 | 5.12 | 0.00 | 88 | 1010.2 |
| 20260502201229 | 75 | 29 | 0.0 | 1.0 | 0.89 | 5.11 | 0.00 | 88 | 1010.2 |
| 20260502200928 | 75 | 350 | 0.0 | 1.0 | 0.85 | 5.03 | 0.00 | 88 | 1010.2 |
| 20260502200719 | 75 | 322 | 0.0 | 1.0 | 0.87 | 5.02 | 0.00 | 88 | 1010.1 |
| 20260502200427 | 75 | 27 | 0.0 | 0.0 | 0.89 | 4.99 | 0.00 | 88 | 1010.0 |
| 20260502200209 | 75 | 12 | 0.0 | 0.0 | 0.85 | 4.95 | 0.00 | 88 | 1010.2 |
| 20260502195927 | 75 | 23 | 0.0 | 0.0 | 0.81 | 4.92 | 0.00 | 88 | 1010.2 |
| 20260502195659 | 75 | 15 | 0.0 | 2.0 | 0.82 | 4.89 | 0.00 | 88 | 1010.1 |
| 20260502195428 | 75 | 350 | 0.0 | 2.0 | 0.81 | 4.89 | 0.00 | 88 | 1010.1 |
| 20260502195148 | 75 | 339 | 1.0 | 1.0 | 0.85 | 4.88 | 0.00 | 88 | 1010.1 |
| 20260502194927 | 75 | 360 | 0.0 | 1.0 | 0.85 | 4.86 | 0.00 | 88 | 1010.1 |
| 20260502194428 | 76 | 338 | 0.0 | 1.0 | 0.85 | 4.82 | 0.00 | 88 | 1010.0 |
| 20260502194129 | 76 | 360 | 0.0 | 1.0 | 0.85 | 4.79 | 0.00 | 88 | 1010.0 |
| 20260502193618 | 76 | 32 | 0.0 | 1.0 | 0.77 | 4.70 | 0.00 | 88 | 1010.0 |
| 20260502193427 | 76 | 209 | 0.0 | 2.0 | 0.74 | 4.66 | 0.00 | 88 | 1010.0 |
| 20260502193109 | 76 | 226 | 1.0 | 2.0 | 0.79 | 4.63 | 0.00 | 88 | 1010.1 |
| 20260502192927 | 76 | 235 | 0.0 | 1.0 | 0.82 | 4.63 | 0.00 | 88 | 1010.1 |
| 20260502192559 | 76 | 343 | 0.0 | 2.0 | 0.83 | 4.59 | 0.00 | 88 | 1010.0 |
| 20260502192428 | 76 | 33 | 0.0 | 2.0 | 0.87 | 4.57 | 0.00 | 88 | 1009.9 |
| 20260502192048 | 76 | 292 | 0.0 | 0.0 | 0.93 | 4.56 | 0.00 | 88 | 1010.0 |
| 20260502191927 | 76 | 339 | 0.0 | 1.0 | 0.92 | 4.55 | 0.00 | 88 | 1010.0 |
| 20260502191539 | 76 | 19 | 0.0 | 1.0 | 0.95 | 4.53 | 0.00 | 88 | 1010.0 |
| 20260502191427 | 76 | 18 | 1.0 | 1.0 | 0.98 | 4.53 | 0.00 | 88 | 1010.0 |
| 20260502191029 | 76 | 2 | 0.0 | 1.0 | 1.02 | 4.50 | 0.00 | 88 | 1009.9 |
| 20260502190927 | 76 | 304 | 0.0 | 1.0 | 1.02 | 4.50 | 0.00 | 88 | 1009.9 |
| 20260502190518 | 76 | 20 | 0.0 | 2.0 | 1.03 | 4.43 | 0.00 | 88 | 1009.9 |
| 20260502190427 | 76 | 29 | 0.0 | 2.0 | 1.03 | 4.41 | 0.00 | 88 | 1009.9 |
| 20260502190008 | 76 | 10 | 1.0 | 2.0 | 1.11 | 4.42 | 0.00 | 88 | 1009.8 |
| 20260502185927 | 76 | 48 | 1.0 | 2.0 | 1.11 | 4.44 | 0.00 | 88 | 1009.8 |
| 20260502185459 | 76 | 256 | 1.0 | 2.0 | 1.14 | 4.40 | 0.00 | 88 | 1010.0 |
| 20260502185427 | 76 | 266 | 1.0 | 2.0 | 1.15 | 4.41 | 0.00 | 88 | 1010.0 |
| 20260502184948 | 76 | 331 | 0.0 | 2.0 | 1.15 | 4.36 | 0.00 | 88 | 1010.1 |
| 20260502184927 | 76 | 330 | 1.0 | 2.0 | 1.15 | 4.36 | 0.00 | 88 | 1010.1 |
| 20260502184438 | 76 | 11 | 1.0 | 2.0 | 1.13 | 4.29 | 0.00 | 88 | 1010.0 |
| 20260502184427 | 76 | 40 | 1.0 | 2.0 | 1.13 | 4.29 | 0.00 | 88 | 1010.1 |
| 20260502183929 | 76 | 24 | 1.0 | 2.0 | 1.21 | 4.28 | 0.00 | 88 | 1010.2 |
| 20260502183927 | 76 | 21 | 1.0 | 2.0 | 1.21 | 4.28 | 0.00 | 88 | 1010.2 |
| 20260502183427 | 76 | 236 | 1.0 | 3.0 | 1.27 | 4.31 | 0.00 | 88 | 1010.2 |
| 20260502183418 | 76 | 258 | 1.0 | 3.0 | 1.27 | 4.31 | 0.00 | 88 | 1010.2 |
| 20260502182926 | 76 | 43 | 1.0 | 4.0 | 1.28 | 4.28 | 0.00 | 88 | 1010.2 |
| 20260502182908 | 76 | 26 | 1.0 | 4.0 | 1.28 | 4.28 | 0.00 | 88 | 1010.1 |
| 20260502182426 | 76 | 2 | 1.0 | 2.0 | 1.31 | 4.24 | 0.00 | 88 | 1010.1 |
| 20260502182358 | 76 | 360 | 1.0 | 2.0 | 1.31 | 4.24 | 0.00 | 88 | 1010.1 |
| 20260502181927 | 76 | 171 | 0.0 | 3.0 | 1.32 | 4.17 | 0.00 | 88 | 1010.2 |
| 20260502181849 | 76 | 343 | 1.0 | 3.0 | 1.29 | 4.16 | 0.00 | 88 | 1010.1 |
| 20260502181427 | 76 | 360 | 0.0 | 5.0 | 1.31 | 4.12 | 0.00 | 88 | 1010.2 |
| 20260502181337 | 76 | 30 | 1.0 | 5.0 | 1.31 | 4.10 | 0.00 | 88 | 1010.2 |
| 20260502180926 | 76 | 319 | 0.0 | 3.0 | 1.29 | 4.08 | 0.00 | 88 | 1010.3 |
| 20260502180828 | 76 | 270 | 0.0 | 3.0 | 1.31 | 4.08 | 0.00 | 88 | 1010.3 |
| 20260502180427 | 76 | 315 | 1.0 | 2.0 | 1.25 | 3.96 | 0.00 | 87 | 1010.4 |
| 20260502180319 | 76 | 359 | 1.0 | 2.0 | 1.26 | 3.97 | 0.00 | 87 | 1010.4 |
| 20260502170426 | 76 | 244 | 1.0 | 2.0 | 1.48 | 3.50 | 0.00 | 87 | 1011.1 |
| 20260502170118 | 76 | 297 | 1.0 | 2.0 | 1.42 | 3.40 | 0.00 | 87 | 1011.0 |
| 20260502164037 | 76 | 268 | 0.0 | 1.0 | 1.42 | 3.26 | 0.00 | 87 | 1011.3 |
| 20260502163926 | 76 | 307 | 0.0 | 5.0 | 1.42 | 3.25 | 0.00 | 87 | 1011.2 |
| 20260502163527 | 76 | 302 | 1.0 | 5.0 | 1.37 | 3.18 | 0.00 | 86 | 1011.3 |
| 20260502163426 | 76 | 268 | 3.0 | 5.0 | 1.35 | 3.17 | 0.00 | 86 | 1011.2 |
| 20260502163017 | 76 | 356 | 1.0 | 2.0 | 1.35 | 3.14 | 0.00 | 86 | 1011.4 |
| 20260502162925 | 76 | 318 | 0.0 | 3.0 | 1.33 | 3.11 | 0.00 | 86 | 1011.4 |
| 20260502162507 | 76 | 360 | 1.0 | 3.0 | 1.25 | 3.07 | 0.00 | 86 | 1011.4 |
| 20260502162426 | 76 | 334 | 1.0 | 3.0 | 1.25 | 3.06 | 0.00 | 86 | 1011.4 |
| 20260502161926 | 76 | 332 | 0.0 | 4.0 | 1.26 | 3.01 | 0.00 | 86 | 1011.5 |
| 20260502161447 | 76 | 353 | 0.0 | 3.0 | 1.26 | 3.04 | 0.00 | 86 | 1011.4 |
| 20260502161425 | 76 | 316 | 0.0 | 3.0 | 1.26 | 3.04 | 0.00 | 86 | 1011.5 |
| 20260502160937 | 76 | 169 | 0.0 | 3.0 | 1.29 | 3.03 | 0.00 | 86 | 1011.5 |
| 20260502160926 | 76 | 230 | 0.0 | 3.0 | 1.29 | 3.03 | 0.00 | 86 | 1011.4 |
| 20260502160428 | 76 | 358 | 1.0 | 2.0 | 1.34 | 2.99 | 0.00 | 86 | 1011.6 |
| 20260502160426 | 76 | 353 | 1.0 | 2.0 | 1.34 | 2.99 | 0.00 | 86 | 1011.6 |
| 20260502152306 | 76 | 286 | 0.0 | 1.0 | 1.06 | 2.61 | 0.00 | 85 | 1012.1 |
| 20260502151925 | 76 | 309 | 1.0 | 2.0 | 1.01 | 2.58 | 0.00 | 85 | 1012.2 |
| 20260502151756 | 76 | 53 | 0.0 | 2.0 | 1.01 | 2.57 | 0.00 | 85 | 1012.2 |
| 20260502151425 | 76 | 280 | 0.0 | 2.0 | 1.02 | 2.57 | 0.00 | 85 | 1012.2 |
| 20260502151247 | 76 | 306 | 0.0 | 2.0 | 1.00 | 2.49 | 0.00 | 85 | 1012.2 |
| 20260502150926 | 77 | 295 | 1.0 | 2.0 | 1.05 | 2.49 | 0.00 | 85 | 1012.1 |
| 20260502150737 | 77 | 311 | 1.0 | 1.0 | 1.01 | 2.46 | 0.00 | 85 | 1012.1 |
| 20260502150425 | 77 | 161 | 0.0 | 2.0 | 1.03 | 2.41 | 0.00 | 85 | 1012.2 |
| 20260502150226 | 77 | 353 | 0.0 | 3.0 | 1.03 | 2.40 | 0.00 | 85 | 1012.1 |
| 20260502130424 | 77 | 274 | 2.0 | 6.0 | 1.08 | 2.03 | 0.00 | 84 | 1010.9 |
| 20260502130336 | 77 | 254 | 2.0 | 6.0 | 1.09 | 2.03 | 0.00 | 84 | 1011.0 |
| 20260502123746 | 77 | 23 | 1.0 | 6.0 | 1.09 | 1.96 | 0.00 | 83 | 1010.6 |
| 20260502123424 | 77 | 52 | 0.0 | 9.0 | 1.12 | 1.95 | 0.00 | 83 | 1010.6 |
| 20260502123236 | 77 | 359 | 1.0 | 9.0 | 1.11 | 1.94 | 0.00 | 83 | 1010.6 |
| 20260502122925 | 77 | 64 | 4.0 | 7.0 | 1.07 | 1.92 | 0.00 | 83 | 1010.5 |
| 20260502122725 | 77 | 22 | 2.0 | 8.0 | 1.06 | 1.89 | 0.00 | 83 | 1010.5 |
| 20260502122424 | 77 | 62 | 4.0 | 8.0 | 1.00 | 1.87 | 0.00 | 83 | 1010.4 |
| 20260502122215 | 77 | 263 | 1.0 | 4.0 | 1.01 | 1.85 | 0.00 | 83 | 1010.3 |
| 20260502121924 | 77 | 233 | 2.0 | 4.0 | 1.01 | 1.83 | 0.00 | 83 | 1010.3 |
| 20260502121705 | 77 | 274 | 2.0 | 7.0 | 1.02 | 1.82 | 0.00 | 83 | 1010.3 |
| 20260502121424 | 77 | 317 | 2.0 | 7.0 | 0.94 | 1.79 | 0.00 | 83 | 1010.3 |
| 20260502121156 | 77 | 243 | 3.0 | 7.0 | 0.94 | 1.80 | 0.00 | 83 | 1010.2 |
| 20260502120924 | 77 | 20 | 2.0 | 6.0 | 0.95 | 1.82 | 0.00 | 83 | 1010.2 |
| 20260502120645 | 77 | 319 | 0.0 | 5.0 | 0.99 | 1.82 | 0.00 | 83 | 1010.2 |
| 20260502120423 | 77 | 282 | 2.0 | 5.0 | 0.94 | 1.80 | 0.00 | 83 | 1010.2 |
| 20260502120135 | 77 | 4 | 0.0 | 6.0 | 0.92 | 1.79 | 0.00 | 83 | 1010.3 |
| 20260502115924 | 77 | 58 | 1.0 | 6.0 | 0.94 | 1.75 | 0.00 | 83 | 1010.4 |
| 20260502115625 | 77 | 44 | 2.0 | 7.0 | 1.02 | 1.74 | 0.00 | 83 | 1010.2 |
| 20260502115424 | 77 | 104 | 1.0 | 7.0 | 1.05 | 1.76 | 0.00 | 83 | 1010.3 |
| 20260502115115 | 77 | 77 | 2.0 | 7.0 | 1.01 | 1.76 | 0.00 | 83 | 1010.2 |
| 20260502114923 | 77 | 8 | 1.0 | 4.0 | 0.99 | 1.73 | 0.00 | 83 | 1010.2 |
| 20260502114604 | 77 | 59 | 1.0 | 3.0 | 0.99 | 1.72 | 0.00 | 83 | 1010.2 |
| 20260502114423 | 77 | 342 | 1.0 | 3.0 | 0.96 | 1.70 | 0.00 | 83 | 1010.1 |
| 20260502113924 | 77 | 243 | 0.0 | 3.0 | 0.92 | 1.69 | 0.00 | 83 | 1010.1 |
| 20260502113546 | 77 | 40 | 1.0 | 11.0 | 0.92 | 1.72 | 0.00 | 83 | 1010.1 |
| 20260502113424 | 77 | 324 | 3.0 | 11.0 | 0.88 | 1.70 | 0.00 | 83 | 1010.0 |
| 20260502113034 | 77 | 14 | 1.0 | 7.0 | 0.88 | 1.76 | 0.00 | 83 | 1009.8 |
| 20260502112923 | 77 | 305 | 3.0 | 7.0 | 0.89 | 1.76 | 0.00 | 83 | 1009.8 |
| 20260502112423 | 77 | 4 | 4.0 | 7.0 | 0.90 | 1.76 | 0.00 | 83 | 1009.8 |
| 20260502112015 | 77 | 342 | 2.0 | 12.0 | 0.85 | 1.76 | 0.00 | 83 | 1009.9 |
| 20260502111924 | 77 | 349 | 4.0 | 12.0 | 0.85 | 1.76 | 0.00 | 83 | 1009.9 |
| 20260502111505 | 77 | 18 | 2.0 | 10.0 | 0.93 | 1.77 | 0.00 | 83 | 1010.0 |
| 20260502111424 | 77 | 18 | 1.0 | 10.0 | 0.93 | 1.77 | 0.00 | 83 | 1010.0 |
| 20260502110954 | 77 | 56 | 3.0 | 14.0 | 0.90 | 1.79 | 0.00 | 83 | 1010.1 |
| 20260502110923 | 77 | 29 | 5.0 | 14.0 | 0.90 | 1.79 | 0.00 | 83 | 1010.1 |
| 20260502110445 | 77 | 267 | 3.0 | 6.0 | 0.92 | 1.81 | 0.00 | 83 | 1010.1 |
| 20260502110423 | 77 | 241 | 3.0 | 6.0 | 0.92 | 1.81 | 0.00 | 83 | 1010.1 |
| 20260502105935 | 77 | 287 | 1.0 | 3.0 | 0.89 | 1.76 | 0.00 | 83 | 1010.0 |
| 20260502105924 | 77 | 282 | 1.0 | 3.0 | 0.89 | 1.76 | 0.00 | 83 | 1010.0 |
| 20260502105425 | 77 | 226 | 3.0 | 8.0 | 0.79 | 1.68 | 0.00 | 82 | 1010.1 |
| 20260502105423 | 77 | 236 | 3.0 | 8.0 | 0.79 | 1.68 | 0.00 | 82 | 1010.1 |
| 20260502104923 | 77 | 233 | 3.0 | 6.0 | 0.85 | 1.72 | 0.00 | 82 | 1010.0 |
| 20260502104914 | 77 | 265 | 3.0 | 6.0 | 0.85 | 1.70 | 0.00 | 82 | 1010.0 |
| 20260502104423 | 77 | 267 | 1.0 | 7.0 | 0.86 | 1.69 | 0.00 | 82 | 1010.0 |
| 20260502104405 | 77 | 241 | 1.0 | 7.0 | 0.86 | 1.75 | 0.00 | 82 | 1010.0 |
| 20260502103923 | 78 | 355 | 2.0 | 7.0 | 0.86 | 1.73 | 0.00 | 82 | 1010.0 |
| 20260502103855 | 78 | 32 | 1.0 | 9.0 | 0.88 | 1.70 | 0.00 | 82 | 1010.0 |
| 20260502103423 | 78 | 8 | 6.0 | 11.0 | 0.90 | 1.73 | 0.00 | 81 | 1010.0 |
| 20260502103344 | 78 | 7 | 6.0 | 11.0 | 0.90 | 1.72 | 0.00 | 81 | 1010.1 |
| 20260502102923 | 78 | 350 | 1.0 | 6.0 | 0.92 | 1.69 | 0.00 | 81 | 1009.9 |
| 20260502102834 | 78 | 268 | 3.0 | 6.0 | 0.94 | 1.69 | 0.00 | 81 | 1009.8 |
| 20260502102423 | 78 | 342 | 1.0 | 6.0 | 0.94 | 1.69 | 0.00 | 81 | 1009.8 |
| 20260502102325 | 78 | 104 | 3.0 | 7.0 | 0.98 | 1.69 | 0.00 | 81 | 1009.8 |
| 20260502101923 | 78 | 248 | 5.0 | 9.0 | 1.02 | 1.77 | 0.00 | 81 | 1009.8 |
| 20260502101814 | 78 | 305 | 4.0 | 9.0 | 0.99 | 1.73 | 0.00 | 81 | 1009.8 |
| 20260502101423 | 78 | 319 | 3.0 | 8.0 | 0.98 | 1.70 | 0.00 | 81 | 1009.9 |
| 20260502101304 | 78 | 348 | 2.0 | 7.0 | 0.98 | 1.68 | 0.00 | 81 | 1009.9 |
| 20260502100923 | 78 | 35 | 3.0 | 10.0 | 1.02 | 1.70 | 0.00 | 81 | 1009.9 |
| 20260502100754 | 78 | 184 | 5.0 | 8.0 | 0.98 | 1.67 | 0.00 | 81 | 1010.0 |
| 20260502100423 | 78 | 265 | 2.0 | 4.0 | 0.95 | 1.67 | 0.00 | 81 | 1009.9 |
| 20260502100244 | 78 | 273 | 1.0 | 5.0 | 0.98 | 1.68 | 0.00 | 81 | 1009.9 |
| 20260502091423 | 80 | 302 | 2.0 | 7.0 | 1.03 | 1.74 | 0.00 | 78 | 1009.5 |
| 20260502091104 | 79 | 117 | 0.0 | 5.0 | 1.06 | 1.80 | 0.00 | 78 | 1009.6 |
| 20260502090922 | 79 | 23 | 3.0 | 5.0 | 1.07 | 1.82 | 0.00 | 78 | 1009.5 |
| 20260502090553 | 79 | 194 | 0.0 | 7.0 | 1.08 | 1.86 | 0.00 | 77 | 1009.6 |
| 20260502090422 | 79 | 326 | 1.0 | 7.0 | 1.11 | 1.87 | 0.00 | 77 | 1009.6 |
| 20260502071421 | 81 | 198 | 3.0 | 8.0 | 1.15 | 2.11 | 0.00 | 76 | 1010.6 |
| 20260502071213 | 80 | 19 | 3.0 | 12.0 | 1.18 | 2.08 | 0.00 | 77 | 1010.6 |
| 20260502070922 | 80 | 279 | 7.0 | 12.0 | 1.19 | 2.12 | 0.00 | 76 | 1010.7 |
| 20260502070703 | 80 | 360 | 3.0 | 9.0 | 1.19 | 2.12 | 0.00 | 76 | 1010.7 |
| 20260502070421 | 80 | 356 | 1.0 | 12.0 | 1.16 | 2.09 | 0.00 | 77 | 1010.7 |
| 20260502070153 | 80 | 75 | 7.0 | 12.0 | 1.15 | 2.11 | 0.00 | 75 | 1010.8 |
| 20260502065921 | 80 | 48 | 5.0 | 11.0 | 1.18 | 2.11 | 0.00 | 76 | 1010.8 |
| 20260502065643 | 80 | 18 | 7.0 | 11.0 | 1.22 | 2.12 | 0.00 | 76 | 1010.9 |
| 20260502065422 | 81 | 31 | 2.0 | 7.0 | 1.21 | 2.11 | 0.00 | 75 | 1010.9 |
| 20260502065132 | 81 | 237 | 3.0 | 7.0 | 1.22 | 2.15 | 0.00 | 76 | 1011.0 |
| 20260502064921 | 81 | 301 | 2.0 | 7.0 | 1.22 | 2.12 | 0.00 | 77 | 1011.0 |
| 20260502064623 | 80 | 358 | 3.0 | 10.0 | 1.28 | 2.07 | 0.00 | 77 | 1011.1 |
| 20260502064421 | 80 | 7 | 6.0 | 10.0 | 1.33 | 2.09 | 0.00 | 76 | 1011.1 |
| 20260502064113 | 80 | 356 | 5.0 | 11.0 | 1.34 | 2.12 | 0.00 | 76 | 1011.2 |
| 20260502063922 | 80 | 349 | 4.0 | 11.0 | 1.35 | 2.11 | 0.00 | 76 | 1011.2 |
| 20260502063603 | 80 | 28 | 4.0 | 9.0 | 1.31 | 2.09 | 0.00 | 76 | 1011.2 |
| 20260502063421 | 80 | 54 | 3.0 | 10.0 | 1.29 | 2.11 | 0.00 | 76 | 1011.2 |
| 20260502063052 | 80 | 208 | 5.0 | 10.0 | 1.28 | 2.11 | 0.00 | 76 | 1011.2 |
| 20260502062921 | 80 | 270 | 4.0 | 7.0 | 1.33 | 2.09 | 0.00 | 76 | 1011.3 |
| 20260502062543 | 80 | 350 | 4.0 | 10.0 | 1.33 | 2.07 | 0.00 | 76 | 1011.4 |
| 20260502062421 | 80 | 40 | 6.0 | 10.0 | 1.33 | 2.08 | 0.00 | 76 | 1011.3 |
| 20260502062032 | 80 | 252 | 5.0 | 9.0 | 1.28 | 2.07 | 0.00 | 76 | 1011.3 |
| 20260502061921 | 80 | 226 | 4.0 | 8.0 | 1.28 | 2.08 | 0.00 | 77 | 1011.3 |
| 20260502061522 | 80 | 221 | 4.0 | 8.0 | 1.28 | 2.09 | 0.00 | 78 | 1011.4 |
| 20260502061421 | 80 | 268 | 1.0 | 4.0 | 1.29 | 2.11 | 0.00 | 78 | 1011.4 |
| 20260502061013 | 79 | 322 | 1.0 | 7.0 | 1.26 | 2.05 | 0.00 | 78 | 1011.6 |
| 20260502060921 | 79 | 240 | 2.0 | 11.0 | 1.27 | 2.06 | 0.00 | 78 | 1011.6 |
| 20260502060502 | 79 | 232 | 7.0 | 15.0 | 1.26 | 2.02 | 0.00 | 77 | 1011.6 |
| 20260502060421 | 79 | 240 | 9.0 | 15.0 | 1.26 | 2.01 | 0.00 | 77 | 1011.6 |
| 20260502055952 | 80 | 266 | 6.0 | 12.0 | 1.28 | 2.01 | 0.00 | 76 | 1011.7 |
| 20260502055921 | 80 | 211 | 7.0 | 12.0 | 1.27 | 2.00 | 0.00 | 76 | 1011.7 |
| 20260502055442 | 80 | 25 | 1.0 | 4.0 | 1.25 | 1.99 | 0.00 | 78 | 1011.8 |
| 20260502055421 | 80 | 43 | 2.0 | 4.0 | 1.24 | 2.00 | 0.00 | 78 | 1011.9 |
| 20260502054931 | 79 | 299 | 0.0 | 16.0 | 1.19 | 1.96 | 0.00 | 77 | 1011.9 |
| 20260502054922 | 79 | 354 | 0.0 | 16.0 | 1.19 | 1.96 | 0.00 | 77 | 1011.9 |
| 20260502054423 | 80 | 1 | 3.0 | 8.0 | 1.11 | 1.89 | 0.00 | 76 | 1012.0 |
| 20260502054421 | 80 | 24 | 3.0 | 8.0 | 1.11 | 1.89 | 0.00 | 76 | 1012.0 |
| 20260502053921 | 80 | 74 | 1.0 | 8.0 | 1.01 | 1.94 | 0.00 | 76 | 1012.1 |
| 20260502053912 | 80 | 20 | 1.0 | 8.0 | 1.01 | 1.94 | 0.00 | 76 | 1012.1 |
| 20260502053420 | 81 | 39 | 1.0 | 4.0 | 1.05 | 1.96 | 0.00 | 76 | 1012.2 |
| 20260502053402 | 81 | 337 | 1.0 | 4.0 | 1.05 | 1.96 | 0.00 | 76 | 1012.2 |
| 20260502052920 | 80 | 348 | 3.0 | 10.0 | 1.05 | 1.89 | 0.00 | 76 | 1012.2 |
| 20260502052852 | 80 | 24 | 6.0 | 10.0 | 1.05 | 1.89 | 0.00 | 76 | 1012.2 |
| 20260502052421 | 80 | 326 | 0.0 | 14.0 | 1.03 | 1.90 | 0.00 | 77 | 1012.3 |
| 20260502052342 | 80 | 280 | 2.0 | 14.0 | 1.03 | 1.90 | 0.00 | 77 | 1012.3 |
| 20260502051920 | 80 | 209 | 8.0 | 12.0 | 1.02 | 1.93 | 0.00 | 75 | 1012.4 |
| 20260502051831 | 80 | 206 | 6.0 | 12.0 | 1.02 | 1.92 | 0.00 | 75 | 1012.4 |
| 20260502051421 | 81 | 240 | 5.0 | 13.0 | 1.03 | 1.92 | 0.00 | 74 | 1012.4 |
| 20260502051322 | 81 | 269 | 6.0 | 13.0 | 1.01 | 1.88 | 0.00 | 74 | 1012.5 |
| 20260502050921 | 82 | 343 | 4.0 | 8.0 | 1.02 | 1.89 | 0.00 | 75 | 1012.5 |
| 20260502050812 | 81 | 276 | 3.0 | 8.0 | 1.03 | 1.89 | 0.00 | 76 | 1012.5 |
| 20260502050420 | 80 | 32 | 3.0 | 15.0 | 1.02 | 1.87 | 0.00 | 76 | 1012.6 |
| 20260502050302 | 80 | 360 | 4.0 | 15.0 | 1.00 | 1.89 | 0.00 | 76 | 1012.7 |
| 20260502045920 | 80 | 229 | 3.0 | 12.0 | 1.05 | 1.89 | 0.00 | 76 | 1012.6 |
| 20260502045752 | 80 | 6 | 2.0 | 12.0 | 1.03 | 1.88 | 0.00 | 76 | 1012.6 |
| 20260502045421 | 80 | 43 | 3.0 | 11.0 | 1.02 | 1.87 | 0.00 | 76 | 1012.8 |
| 20260502045242 | 80 | 7 | 5.0 | 12.0 | 1.07 | 1.90 | 0.00 | 76 | 1012.8 |
| 20260502044920 | 80 | 239 | 9.0 | 15.0 | 1.11 | 1.92 | 0.00 | 75 | 1012.9 |
| 20260502044731 | 80 | 241 | 8.0 | 15.0 | 1.12 | 1.88 | 0.00 | 75 | 1012.9 |
| 20260502044420 | 81 | 200 | 7.0 | 12.0 | 1.09 | 1.87 | 0.00 | 74 | 1012.9 |
| 20260502043921 | 81 | 360 | 5.0 | 14.0 | 1.26 | 1.99 | 0.00 | 74 | 1013.1 |
| 20260502043711 | 81 | 93 | 7.0 | 14.0 | 1.29 | 2.00 | 0.00 | 74 | 1013.0 |
| 20260502043420 | 81 | 240 | 4.0 | 11.0 | 1.31 | 2.02 | 0.00 | 74 | 1013.0 |
| 20260502043201 | 81 | 50 | 5.0 | 15.0 | 1.32 | 2.02 | 0.00 | 73 | 1013.0 |
| 20260502042920 | 82 | 3 | 7.0 | 15.0 | 1.27 | 2.00 | 0.00 | 74 | 1013.0 |
| 20260502042652 | 82 | 225 | 3.0 | 10.0 | 1.27 | 2.01 | 0.00 | 74 | 1013.0 |
| 20260502042421 | 81 | 57 | 6.0 | 10.0 | 1.27 | 2.03 | 0.00 | 74 | 1013.1 |
| 20260502041920 | 81 | 224 | 1.0 | 8.0 | 1.28 | 2.07 | 0.00 | 75 | 1013.2 |
| 20260502041632 | 81 | 29 | 5.0 | 12.0 | 1.29 | 2.09 | 0.00 | 75 | 1013.2 |
| 20260502041420 | 81 | 19 | 4.0 | 15.0 | 1.33 | 2.09 | 0.00 | 75 | 1013.1 |
| 20260502041122 | 81 | 17 | 7.0 | 15.0 | 1.38 | 2.07 | 0.00 | 75 | 1013.2 |
| 20260502040919 | 81 | 307 | 4.0 | 13.0 | 1.38 | 2.06 | 0.00 | 74 | 1013.2 |
| 20260502040611 | 81 | 54 | 5.0 | 13.0 | 1.39 | 2.03 | 0.00 | 75 | 1013.2 |
| 20260502040420 | 81 | 47 | 5.0 | 15.0 | 1.39 | 2.01 | 0.00 | 75 | 1013.2 |
| 20260502035920 | 81 | 18 | 7.0 | 16.0 | 1.32 | 1.94 | 0.00 | 75 | 1013.3 |
| 20260502035552 | 81 | 50 | 5.0 | 16.0 | 1.35 | 1.94 | 0.00 | 74 | 1013.3 |
| 20260502035420 | 81 | 279 | 3.0 | 12.0 | 1.39 | 1.94 | 0.00 | 75 | 1013.3 |
| 20260502035041 | 80 | 357 | 9.0 | 14.0 | 1.40 | 1.92 | 0.00 | 75 | 1013.3 |
| 20260502034920 | 81 | 351 | 6.0 | 15.0 | 1.40 | 1.88 | 0.00 | 76 | 1013.3 |